#timestamp,LO_Frequency,Hit,StdDev 
1568577615.2,286047000.0,N
1568577635.0,286047000.6,N
1568577635.9,286047000.6,N
1568577655.8,286047000.4,N
1568577675.6,286046998.6,N
1568577695.5,286046998.9,N
1568577715.3,286046998.7,N
1568577735.1,286046998.5,N
1568577755.9,286047000.8,N
1568577775.7,286047000.7,N
1568577795.5,286046998.6,N
1568577815.4,286046998.4,N
1568577835.2,286046998.3,N
1568577855.1,286046998.8,N
1568577856.0,286046998.8,N
1568577875.8,286046999.4,N
1568577895.6,286046998.9,N
1568577915.5,286046999.5,N
1568577935.3,286046996.7,N
1568577955.1,286046999.2,N
1568577975.9,286046999.2,N
1568577995.7,286046996.6,N
1568578015.6,286046997.2,N
1568578035.4,286046997.3,N
1568578055.2,286046996.8,N
1568578075.1,286046996.9,N
1568578076.0,286046996.9,N
1568578095.8,286046995.0,Y
1568578115.7,286046997.5,P
1568578135.5,286046995.1,P
1568578155.3,286046995.4,N
1568578175.2,286046997.1,N
1568578195.0,286046996.9,N
1568578195.9,286046996.9,N
1568578215.8,286046996.8,N
1568578235.6,286046997.5,N
1568578255.4,286046995.5,Y
1568578275.3,286046999.3,P
1568578295.1,286046998.5,N
1568578315.9,286046998.9,N
1568578335.7,286046998.8,N
1568578355.5,286047001.1,N
1568578375.4,286047001.1,N
1568578395.2,286047001.1,N
1568578415.0,286046999.0,N
1568578415.9,286046999.0,N
1568578435.8,286046998.8,N
1568578455.6,286046998.8,N
1568578475.5,286046996.5,N
1568578495.3,286046996.7,N
1568578515.1,286046997.7,N
1568578535.9,286046994.9,Y
1568578555.7,286046996.8,P
1568578575.6,286046997.0,P
1568578595.4,286046997.0,P
1568578615.2,286046996.6,Y
1568578635.1,286047002.7,P
1568578636.0,286047002.7,N
1568578655.8,286047000.6,N
1568578675.7,286046998.7,N
1568578695.5,286046998.4,N
1568578715.3,286046999.2,N
1568578735.2,286046998.2,N
1568578755.0,286047000.9,N
1568578755.9,286047000.9,N
1568578775.7,286047000.1,N
1568578795.6,286046999.8,N
1568578815.4,286047000.4,N
1568578835.3,286047000.5,N
1568578855.1,286047000.8,N
1568578875.8,286047001.1,N
1568578895.7,286046998.8,N
1568578915.5,286047001.1,N
1568578935.4,286046998.3,N
1568578955.2,286046998.6,N
1568578975.0,286047000.3,N
1568578975.9,286047000.3,N
1568578995.8,286047002.8,N
1568579015.6,286047002.4,N
1568579035.4,286047000.1,N
1568579055.3,286047000.7,N
1568579075.1,286047000.8,N
1568579095.9,286047002.3,N
1568579115.7,286047002.8,N
1568579135.5,286047001.6,N
1568579155.4,286047002.0,N
1568579175.2,286047001.8,N
1568579195.1,286047001.8,N
1568579196.0,286047001.8,N
1568579215.8,286047004.4,Y
1568579235.6,286047001.9,P
1568579255.5,286047001.9,N
1568579275.3,286047001.7,N
1568579295.2,286046999.7,N
1568579315.9,286047000.0,N
1568579335.7,286047002.6,N
1568579355.6,286047002.0,N
1568579375.4,286047001.4,N
1568579395.2,286047005.6,Y
1568579415.1,286047003.6,P
1568579416.0,286047003.6,P
1568579435.8,286047003.2,N
1568579455.7,286047002.2,N
1568579475.5,286047003.2,Y
1568579495.3,286046998.3,P
1568579515.2,286046998.7,N
1568579535.0,286046998.9,N
1568579535.9,286046998.9,N
1568579555.8,286046998.9,N
1568579575.6,286046998.6,N
1568579595.4,286046997.0,N
1568579615.3,286046997.5,N
1568579635.1,286046996.8,N
1568579655.9,286046997.1,N
1568579675.7,286046999.6,N
1568579695.5,286046999.2,N
1568579715.4,286046996.6,N
1568579735.2,286046999.2,N
1568579755.0,286046997.2,N
1568579755.9,286046997.2,N
1568579775.8,286046997.4,N
1568579795.6,286046996.0,N
1568579815.5,286046998.0,N
1568579835.3,286046997.7,N
1568579855.1,286046995.1,Y
1568579875.9,286046999.1,P
1568579895.7,286046997.4,P
1568579915.6,286046996.5,P
1568579935.4,286046999.4,N
1568579955.2,286046998.8,N
1568579975.1,286047000.5,N
1568579976.0,286047000.5,N
1568579995.8,286047000.9,N
1568580015.6,286047001.6,N
1568580035.5,286047002.4,N
1568580055.3,286047000.6,N
1568580075.2,286047000.9,N
1568580095.9,286046998.7,N
1568580115.7,286046998.1,N
1568580135.6,286047001.1,N
1568580155.4,286047000.3,N
1568580175.2,286047001.0,N
1568580195.1,286047002.4,N
1568580196.0,286047002.4,N
1568580215.8,286047004.2,N
1568580235.7,286047001.4,N
1568580255.5,286047002.2,N
1568580275.3,286047002.8,N
1568580295.2,286047000.4,N
1568580315.0,286047000.4,N
1568580315.9,286047000.4,N
1568580335.8,286046999.9,N
1568580355.6,286047002.0,N
1568580375.4,286047003.3,N
1568580395.3,286047005.5,Y
1568580415.1,286047005.8,P
1568580435.9,286047002.9,N
1568580455.7,286047003.5,N
1568580475.5,286047001.8,N
1568580495.4,286047002.3,N
1568580515.2,286047001.0,N
1568580535.0,286047000.8,N
1568580535.9,286047000.8,N
1568580555.8,286047000.3,N
1568580575.6,286047000.2,N
1568580595.5,286047011.9,Y
1568580615.3,286046999.6,P
1568580635.1,286046997.7,N
1568580655.9,286046994.9,P
1568580675.7,286046997.7,N
1568580695.6,286046994.9,N
1568580715.4,286046996.8,N
1568580735.2,286046999.4,N
1568580755.1,286046998.3,N
1568580756.0,286046998.3,N
1568580775.8,286046999.1,N
1568580795.7,286046997.4,N
1568580815.5,286046997.5,N
1568580835.3,286046999.4,N
1568580855.2,286046999.5,N
1568580875.0,286046996.8,N
1568580875.9,286046996.8,N
1568580895.8,286046998.4,N
1568580915.6,286046996.6,N
1568580935.4,286046998.4,N
1568580955.3,286046998.1,N
1568580975.1,286047000.8,N
1568580995.8,286046998.3,N
1568581015.7,286047000.1,N
1568581035.5,286047001.3,N
1568581055.4,286047006.0,Y
1568581075.2,286047006.9,P
1568581095.0,286047005.4,N
1568581095.9,286047005.4,N
1568581115.8,286047003.0,N
1568581135.6,286047002.9,N
1568581155.4,286047004.8,N
1568581175.3,286047005.3,N
1568581195.1,286047007.5,Y
